#timestamp,LO_Frequency,Hit,StdDev 
1566572415.4,286047000.8,N
1566572435.3,286047002.5,N
1566572455.1,286047003.9,N
1566572475.8,286047002.1,N
1566572495.7,286047002.2,N
1566572515.5,286047002.1,N
1566572535.4,286047001.4,N
1566572555.2,286047003.6,N
1566572575.0,286047005.4,N
1566572575.9,286047005.4,N
1566572595.8,286047003.3,N
1566572615.6,286047005.5,N
1566572635.4,286047003.1,N
1566572655.3,286047003.8,N
1566572675.1,286047003.9,N
1566572695.9,286047001.4,N
1566572715.7,286047003.1,N
1566572735.5,286047005.7,N
1566572755.4,286047005.4,N
1566572775.2,286047005.5,N
1566572795.0,286047005.4,N
1566572796.0,286047005.4,N
1566572815.8,286047005.0,N
1566572835.6,286047006.0,N
1566572855.5,286047005.3,N
1566572875.3,286047003.1,N
1566572895.1,286047004.1,N
1566572915.9,286047003.2,N
1566572935.7,286047005.6,N
1566572955.5,286047003.7,N
1566572975.4,286047003.8,N
1566572995.2,286047004.9,Y
1566573015.1,286047002.0,P
1566573016.0,286047002.0,N
1566573035.8,286047002.5,N
1566573055.6,286047000.3,N
1566573075.5,286047001.0,N
1566573095.3,286047001.1,N
1566573115.2,286047003.3,N
1566573135.9,286047003.6,Y
1566573155.7,286047002.8,P
1566573175.6,286047002.2,P
1566573195.4,286047001.3,P
1566573215.2,286047003.8,Y
1566573235.1,286047001.1,P
1566573236.0,286047001.1,N
1566573255.8,286047000.0,N
1566573275.7,286047002.8,Y
1566573295.5,286046998.8,P
1566573315.3,286047000.6,N
1566573335.2,286046999.8,N
1566573355.0,286046998.9,N
1566573355.9,286046998.9,N
1566573375.8,286046997.9,N
1566573395.6,286046995.2,Y
1566573415.4,286046997.4,P
1566573435.3,286046995.0,P
1566573455.1,286046995.0,N
1566573475.8,286046997.4,N
1566573495.7,286046998.0,N
1566573515.5,286046995.4,N
1566573535.4,286046995.4,N
1566573555.2,286046997.8,N
1566573575.0,286046999.4,N
1566573575.9,286046999.4,N
1566573595.8,286046999.6,N
1566573615.6,286046998.2,N
1566573635.4,286046999.2,N
1566573655.3,286046998.3,N
1566573675.1,286046998.6,N
1566573695.8,286047001.1,N
1566573715.7,286046999.1,N
1566573735.5,286046997.4,N
1566573755.4,286046995.0,N
1566573775.2,286046999.4,N
1566573795.0,286047001.1,N
1566573795.9,286047001.1,N
1566573815.8,286047000.3,N
1566573835.6,286047001.1,N
1566573855.4,286047000.1,N
1566573875.3,286047000.9,N
1566573895.1,286046998.3,N
1566573915.9,286047000.9,N
1566573935.7,286046998.1,N
1566573955.5,286046998.6,N
1566573975.4,286046999.8,N
1566573995.2,286047002.3,N
1566574015.0,286047000.5,N
1566574015.9,286047000.5,N
1566574035.8,286047002.0,N
1566574055.6,286047004.3,N
1566574075.5,286047002.1,N
1566574095.3,286047000.4,N
1566574115.1,286047001.2,N
1566574135.9,286047003.3,N
1566574155.7,286047004.0,N
1566574175.5,286047002.4,N
1566574195.4,286047000.2,N
1566574215.2,286047004.4,N
1566574235.1,286047003.8,N
1566574236.0,286047003.8,N
1566574255.8,286047004.2,N
1566574275.6,286047001.5,N
1566574295.5,286047011.9,Y
1566574315.3,286047002.3,P
1566574335.1,286046999.7,N
1566574355.9,286047002.5,N
1566574375.7,286047002.5,N
1566574395.6,286047004.3,Y
1566574415.4,286047001.9,P
1566574435.2,286047002.6,P
1566574455.1,286047000.2,N
1566574456.0,286047000.2,N
1566574475.8,286047000.1,N
1566574495.7,286047000.5,N
1566574515.5,286047000.9,N
1566574535.3,286047000.4,N
1566574555.2,286047001.0,N
1566574575.9,286047000.4,N
1566574595.7,286047002.4,Y
1566574615.6,286047001.2,P
1566574635.4,286046998.9,P
1566574655.3,286047000.3,N
1566574675.1,286047001.9,N
1566574676.0,286047001.9,N
1566574695.8,286047001.6,N
1566574715.7,286047001.7,N
1566574735.5,286047004.1,Y
1566574755.3,286047002.8,P
1566574775.2,286046999.3,N
1566574795.0,286046998.5,N
1566574795.9,286046998.5,N
1566574815.8,286047001.2,N
1566574835.6,286047002.7,N
1566574855.4,286047004.2,N
1566574875.3,286047003.2,N
1566574895.1,286047001.8,N
1566574915.8,286047000.1,N
1566574935.7,286047000.0,N
1566574955.5,286047001.5,N
1566574975.4,286047004.0,N
1566574995.2,286047003.7,N
1566575015.0,286047006.0,Y
1566575015.9,286047006.0,P
1566575035.8,286047003.7,N
1566575055.6,286047005.9,P
1566575075.5,286047004.3,N
1566575095.3,286047000.0,N
1566575115.1,286046999.9,N
1566575135.9,286047000.6,N
1566575155.7,286047000.4,N
1566575175.5,286047000.0,N
1566575195.4,286046999.3,N
1566575215.2,286046996.6,N
1566575235.1,286047000.5,N
1566575236.0,286047000.5,N
1566575255.8,286047001.0,N
1566575275.6,286047000.0,N
1566575295.5,286047000.3,N
1566575315.3,286046996.9,N
1566575335.2,286046999.4,N
1566575355.9,286047001.2,N
1566575375.7,286046997.3,N
1566575395.6,286046996.6,N
1566575415.4,286046997.8,N
1566575435.2,286047000.4,N
1566575455.1,286046998.1,N
1566575456.0,286046998.1,N
1566575475.8,286046996.9,N
1566575495.7,286046997.5,N
1566575515.5,286046996.9,N
1566575535.3,286046999.5,N
1566575555.2,286046999.3,N
1566575575.0,286046998.9,N
1566575575.9,286046998.9,N
1566575595.8,286046999.2,N
1566575615.6,286046999.0,N
1566575635.4,286046999.7,N
1566575655.3,286047002.4,N
1566575675.1,286047001.4,N
1566575695.8,286047001.8,N
1566575715.7,286046998.8,N
1566575735.5,286046998.5,N
1566575755.3,286047000.9,N
1566575775.2,286046998.2,N
1566575795.0,286046996.5,N
1566575795.9,286046996.5,N
1566575815.8,286046998.3,N
1566575835.6,286046998.4,N
1566575855.4,286047000.3,N
1566575875.3,286047002.8,N
1566575895.1,286047000.6,N
1566575915.9,286047001.1,N
1566575935.7,286046999.1,N
1566575955.5,286046995.1,N
1566575975.4,286046997.5,N
1566575995.2,286046999.5,N
